User: anonymous   Login
Location: Unspecified
(0.0000°N, 0.0000°E)
Time: 13:00:26
(UTC+00:00)
Language:

Landsat 7 - Orbit

View from above orbital plane
View from above orbital plane
View from above satellite
View from above satellite

Ground track
Ground track

The orbit data is extracted from the following two-line orbital elements,

1 25682U 99020A   17017.18985832  .00000037  00000-0  18140-4 0  9991
2 25682  98.1901  90.4197 0001290  85.9115 274.2264 14.57124229944601
Epoch (UTC): 17 January 2017 04:33:23
Eccentricity: 0.0001290
inclination: 98.1901°
perigee height: 701 km
apogee height: 703 km
right ascension of ascending node: 90.4197°
argument of perigee: 85.9115°
revolutions per day: 14.57124229
mean anomaly at epoch: 274.2264°
orbit number at epoch: 94460

The dashed part of the orbit path shows where the satellite is in the earth's shadow,  

DLR